TimeEEST,TemperatureF,Dew PointF,Humidity,Sea Level PressureIn,VisibilityMPH,Wind Direction,Wind SpeedMPH,Gust SpeedMPH,PrecipitationIn,Events,Conditions,WindDirDegrees,DateUTC
12:20 AM,41.0,24.8,53,30.39,-9999.0,SE,1.2,-,N/A,,Clear,140,2012-10-01 21:20:00
12:50 AM,41.0,23.0,49,30.39,-9999.0,SSE,3.5,-,N/A,,Clear,160,2012-10-01 21:50:00
1:20 AM,39.2,23.0,52,30.39,-9999.0,Variable,2.3,-,N/A,,Clear,0,2012-10-01 22:20:00
1:50 AM,41.0,23.0,49,30.39,-9999.0,NE,1.2,-,N/A,,Clear,50,2012-10-01 22:50:00
2:20 AM,37.4,23.0,56,30.39,-9999.0,Variable,2.3,-,N/A,,Clear,0,2012-10-01 23:20:00
2:50 AM,39.2,23.0,52,30.39,-9999.0,Calm,Calm,-,N/A,,Clear,0,2012-10-01 23:50:00
3:00 AM,38,22,39,,12,Calm,Calm,,,,,,2012-10-02 00:00:00
3:20 AM,39.2,23.0,52,30.39,-9999.0,West,5.8,-,N/A,,Clear,260,2012-10-02 00:20:00
3:50 AM,35.6,23.0,60,30.39,-9999.0,South,3.5,-,N/A,,Clear,190,2012-10-02 00:50:00
4:20 AM,35.6,21.2,56,30.39,-9999.0,Variable,2.3,-,N/A,,Clear,0,2012-10-02 01:20:00
4:50 AM,35.6,23.0,60,30.39,-9999.0,Calm,Calm,-,N/A,,Clear,0,2012-10-02 01:50:00
5:20 AM,33.8,23.0,65,30.39,-9999.0,Variable,2.3,-,N/A,,Clear,0,2012-10-02 02:20:00
5:50 AM,35.6,23.0,60,30.39,-9999.0,Variable,1.2,-,N/A,,Clear,0,2012-10-02 02:50:00
6:20 AM,37.4,21.2,52,30.39,-9999.0,SSW,3.5,-,N/A,,Clear,210,2012-10-02 03:20:00
6:50 AM,37.4,21.2,52,30.39,-9999.0,Calm,Calm,-,N/A,,Clear,0,2012-10-02 03:50:00
7:20 AM,41.0,23.0,49,30.39,-9999.0,Variable,1.2,-,N/A,,Clear,0,2012-10-02 04:20:00
7:50 AM,46.4,23.0,40,30.39,-9999.0,Calm,Calm,-,N/A,,Clear,0,2012-10-02 04:50:00
8:20 AM,50.0,24.8,37,30.39,-9999.0,Variable,1.2,-,N/A,,Clear,0,2012-10-02 05:20:00
8:50 AM,57.2,24.8,29,30.39,-9999.0,Variable,1.2,-,N/A,,Clear,0,2012-10-02 05:50:00
9:00 AM,56,23,17,,12,West,1.2,,,,,280,2012-10-02 06:00:00
9:20 AM,60.8,24.8,25,30.39,-9999.0,Variable,1.2,-,N/A,,Clear,0,2012-10-02 06:20:00
9:50 AM,64.4,30.2,28,30.39,6.2,East,4.6,-,N/A,,Partly Cloudy,80,2012-10-02 06:50:00
10:20 AM,66.2,32.0,28,30.39,-9999.0,ENE,3.5,-,N/A,,Clear,60,2012-10-02 07:20:00
10:50 AM,68.0,30.2,24,30.39,-9999.0,ENE,5.8,-,N/A,,Clear,70,2012-10-02 07:50:00
11:20 AM,69.8,30.2,23,30.36,-9999.0,NE,8.1,-,N/A,,Clear,40,2012-10-02 08:20:00
11:50 AM,73.4,32.0,22,30.36,6.2,NNE,8.1,-,N/A,,Partly Cloudy,30,2012-10-02 08:50:00
12:20 PM,75.2,33.8,22,30.33,6.2,NNE,4.6,-,N/A,,Partly Cloudy,30,2012-10-02 09:20:00
12:50 PM,77.0,32.0,19,30.33,6.2,Variable,2.3,-,N/A,,Partly Cloudy,0,2012-10-02 09:50:00
1:20 PM,78.8,30.2,17,30.30,6.2,Variable,4.6,-,N/A,,Partly Cloudy,0,2012-10-02 10:20:00
1:50 PM,77.0,32.0,19,30.30,6.2,NW,4.6,-,N/A,,Scattered Clouds,310,2012-10-02 10:50:00
2:20 PM,77.0,30.2,18,30.30,6.2,WNW,5.8,-,N/A,,Scattered Clouds,290,2012-10-02 11:20:00
2:50 PM,78.8,30.2,17,30.27,6.2,Variable,4.6,-,N/A,,Scattered Clouds,0,2012-10-02 11:50:00
3:00 PM,79,30,8,,12,SW,4.6,,,,Partly Cloudy,230,2012-10-02 12:00:00
3:20 PM,78.8,32.0,18,30.27,6.2,South,3.5,-,N/A,,Scattered Clouds,170,2012-10-02 12:20:00
3:50 PM,77.0,32.0,19,30.27,6.2,Variable,3.5,-,N/A,,Scattered Clouds,0,2012-10-02 12:50:00
4:20 PM,77.0,33.8,21,30.27,6.2,WSW,9.2,-,N/A,,Scattered Clouds,250,2012-10-02 13:20:00
4:50 PM,75.2,32.0,21,30.27,6.2,WSW,9.2,-,N/A,,Scattered Clouds,240,2012-10-02 13:50:00
5:20 PM,71.6,37.4,29,30.27,6.2,SSW,11.5,-,N/A,,Scattered Clouds,200,2012-10-02 14:20:00
5:50 PM,71.6,35.6,27,30.30,6.2,South,11.5,-,N/A,,Scattered Clouds,190,2012-10-02 14:50:00
6:20 PM,71.6,35.6,27,30.30,6.2,Variable,8.1,-,N/A,,Scattered Clouds,0,2012-10-02 15:20:00
6:50 PM,69.8,35.6,28,30.30,6.2,South,12.7,-,N/A,,Scattered Clouds,190,2012-10-02 15:50:00
7:20 PM,69.8,37.4,31,30.30,6.2,South,5.8,-,N/A,,Scattered Clouds,180,2012-10-02 16:20:00
7:50 PM,68.0,37.4,33,30.30,6.2,South,3.5,-,N/A,,Scattered Clouds,170,2012-10-02 16:50:00
8:20 PM,66.2,37.4,35,30.30,6.2,South,5.8,-,N/A,,Scattered Clouds,190,2012-10-02 17:20:00
8:50 PM,62.6,39.2,42,30.30,6.2,SW,5.8,-,N/A,,Scattered Clouds,230,2012-10-02 17:50:00
9:00 PM,63,39,30,,12,SW,5.8,,,,Partly Cloudy,230,2012-10-02 18:00:00
9:20 PM,60.8,39.2,45,30.30,6.2,WSW,3.5,-,N/A,,Scattered Clouds,250,2012-10-02 18:20:00
9:50 PM,57.2,39.2,51,30.30,6.2,Calm,Calm,-,N/A,,Scattered Clouds,0,2012-10-02 18:50:00
10:20 PM,57.2,39.2,51,30.30,6.2,SW,4.6,-,N/A,,Scattered Clouds,230,2012-10-02 19:20:00
10:50 PM,55.4,37.4,51,30.30,6.2,West,3.5,-,N/A,,Scattered Clouds,260,2012-10-02 19:50:00
11:20 PM,53.6,37.4,54,30.30,6.2,Variable,2.3,-,N/A,,Scattered Clouds,0,2012-10-02 20:20:00
11:50 PM,50.0,35.6,58,30.30,6.2,Calm,Calm,-,N/A,,Scattered Clouds,0,2012-10-02 20:50:00